Location: Peterborough
(44.3091°N, 78.3197°W)
Time: 22:53:36
(UTC-04:00)

ACS3 Solar Sail - Visible Passes

Search period start: 15 April 2026 00:00
Search period end: 25 April 2026 00:00
Orbit: 871 x 977 km, 97.2° (Epoch: 15 April)

Date Brightness Start Highest point End Pass type
(mag) Time Alt. Az. Time Alt. Az. Time Alt. Az.
15 Apr 3.5 01:17:41 10° NE 01:21:00 21° ENE 01:21:00 21° ENE visible
15 Apr 2.0 02:59:14 10° N 03:04:34 57° NW 03:04:34 57° NW visible
15 Apr 3.8 04:45:18 10° NW 04:46:21 10° NW 04:47:24 10° WNW visible
16 Apr 3.3 01:27:07 10° NE 01:30:57 26° ENE 01:30:57 26° ENE visible
16 Apr 2.2 03:09:03 10° N 03:14:31 49° WNW 03:14:31 49° WNW visible
17 Apr 3.1 01:36:35 10° NNE 01:40:53 31° ENE 01:40:53 31° ENE visible
17 Apr 2.4 03:18:51 10° N 03:24:27 41° WNW 03:24:27 41° WNW visible
18 Apr 2.8 01:46:05 10° NNE 01:50:45 38° ENE 01:50:45 38° ENE visible
18 Apr 2.6 03:28:40 10° N 03:34:03 35° WNW 03:34:19 35° WNW visible
19 Apr 2.5 01:55:35 10° NNE 02:00:37 46° ENE 02:00:37 46° ENE visible
19 Apr 2.8 03:38:28 10° N 03:43:35 29° WNW 03:44:10 29° WNW visible
20 Apr 2.2 02:05:06 10° NNE 02:10:25 56° ENE 02:10:25 56° ENE visible
20 Apr 3.0 03:48:17 10° NNW 03:53:04 25° WNW 03:53:59 24° WNW visible
21 Apr 4.1 00:36:16 10° ENE 00:36:38 10° ENE 00:36:38 10° ENE visible
21 Apr 1.9 02:14:36 10° NNE 02:20:12 67° ENE 02:20:12 67° ENE visible
21 Apr 3.2 03:58:07 10° NNW 04:02:29 21° WNW 04:03:45 20° WNW visible
22 Apr 3.9 00:44:14 10° ENE 00:46:23 13° ENE 00:46:23 13° ENE visible
22 Apr 1.7 02:24:07 10° NNE 02:29:56 80° NE 02:29:56 80° NE visible
22 Apr 3.4 04:07:59 10° NNW 04:11:52 18° WNW 04:13:29 16° WNW visible
23 Apr 3.8 00:52:58 10° NE 00:56:05 16° E 00:56:05 16° E visible
23 Apr 1.7 02:33:36 10° N 02:39:38 82° WNW 02:39:38 82° WNW visible
23 Apr 3.6 04:17:55 10° NNW 04:21:11 15° WNW 04:23:11 13° WNW visible
24 Apr 3.6 01:01:55 10° NE 01:05:45 20° E 01:05:45 20° E visible
24 Apr 1.7 02:43:06 10° N 02:49:11 69° WNW 02:49:18 69° W visible
24 Apr 3.8 04:28:02 10° NNW 04:30:28 13° NW 04:32:51 10° WNW visible
